QPF
0.33 0.31 0.28 0.25 0.18 0.15 0.09 0.07 0.07 0.09 0.09 0.03 0.01 0.02 0.02 0.03 0.05 0.05 0.05 0.06 0.05 0.03 0.04 0.09 0.14 0.15 0.14 0.13 0.12 0.13 0.14 0.14 0.12 0.09 0.07 0.05 0.05 0.05 0.05 0.04 0.03 0.02 0.02 0.02 0.02 0.01 0.01 0.00 0.00
0.28 0.24 0.20 0.17 0.15 0.13 0.09 0.09 0.10 0.11 0.05 0.01 0.01 0.02 0.02 0.01 0.01 0.02 0.06 0.10 0.05 0.02 0.05 0.09 0.14 0.16 0.17 0.16 0.15 0.16 0.16 0.16 0.16 0.14 0.11 0.10 0.09 0.08 0.07 0.07 0.06 0.06 0.06 0.06 0.05 0.04 0.02 0.01 0.00
0.23 0.18 0.15 0.16 0.15 0.08 0.09 0.10 0.11 0.09 0.03 0.02 0.01 0.01 0.01 0.01 0.02 0.04 0.07 0.08 0.06 0.05 0.06 0.08 0.12 0.12 0.13 0.14 0.13 0.15 0.15 0.17 0.18 0.18 0.17 0.15 0.14 0.11 0.11 0.11 0.10 0.10 0.12 0.13 0.11 0.09 0.07 0.04 0.02
0.16 0.13 0.10 0.11 0.11 0.07 0.07 0.08 0.08 0.07 0.03 0.01 0.01 0.00 0.00 0.00 0.02 0.04 0.05 0.04 0.03 0.03 0.04 0.06 0.10 0.10 0.11 0.12 0.13 0.14 0.16 0.18 0.20 0.20 0.20 0.18 0.17 0.16 0.15 0.16 0.16 0.15 0.16 0.18 0.17 0.15 0.12 0.09 0.05
0.13 0.12 0.11 0.10 0.07 0.06 0.06 0.07 0.05 0.04 0.02 0.00 0.00 0.00 0.00 0.00 0.01 0.01 0.04 0.02 0.02 0.03 0.04 0.05 0.06 0.07 0.08 0.08 0.11 0.13 0.16 0.19 0.21 0.20 0.20 0.19 0.18 0.19 0.21 0.20 0.21 0.22 0.22 0.22 0.22 0.21 0.16 0.12 0.09
0.16 0.13 0.11 0.09 0.08 0.07 0.07 0.06 0.04 0.03 0.01 0.00 0.00 0.00 0.00 0.01 0.01 0.01 0.01 0.01 0.01 0.01 0.02 0.03 0.04 0.04 0.05 0.04 0.05 0.07 0.10 0.11 0.13 0.15 0.17 0.19 0.21 0.21 0.23 0.23 0.25 0.26 0.26 0.26 0.26 0.27 0.24 0.18 0.14
0.15 0.12 0.09 0.08 0.08 0.09 0.08 0.04 0.03 0.03 0.02 0.01 0.00 0.00 0.00 0.01 0.01 0.01 0.01 0.00 0.00 0.00 0.01 0.01 0.01 0.01 0.03 0.03 0.04 0.04 0.04 0.06 0.08 0.10 0.10 0.10 0.11 0.13 0.18 0.22 0.24 0.24 0.24 0.24 0.24 0.26 0.27 0.23 0.18
0.09 0.10 0.08 0.07 0.09 0.09 0.05 0.03 0.02 0.02 0.02 0.00 0.00 0.00 0.00 0.00 0.00 0.00 0.00 0.00 0.00 0.00 0.00 0.00 0.00 0.00 0.00 0.00 0.01 0.01 0.01 0.02 0.04 0.05 0.06 0.07 0.09 0.10 0.13 0.15 0.17 0.18 0.21 0.24 0.25 0.26 0.24 0.25 0.23
0.09 0.12 0.10 0.07 0.06 0.05 0.02 0.02 0.02 0.01 0.00 0.00 0.00 0.00 0.00 0.00 0.00 0.00 0.00 0.00 0.00 0.00 0.00 0.00 0.00 0.00 0.00 0.00 0.00 0.00 0.00 0.00 0.01 0.01 0.02 0.03 0.03 0.05 0.06 0.07 0.12 0.15 0.19 0.22 0.25 0.27 0.25 0.25 0.25
0.13 0.12 0.07 0.03 0.02 0.02 0.02 0.01 0.01 0.01 0.01 0.00 0.00 0.00 0.00 0.00 0.00 0.00 0.00 0.00 0.00 0.00 0.00 0.00 0.00 0.00 0.00 0.00 0.00 0.00 0.00 0.00 0.00 0.00 0.01 0.01 0.01 0.02 0.03 0.04 0.07 0.11 0.15 0.19 0.23 0.26 0.29 0.27 0.21
0.10 0.08 0.04 0.04 0.02 0.02 0.02 0.02 0.01 0.01 0.01 0.00 0.00 0.00 0.00 0.00 0.00 0.00 0.00 0.00 0.00 0.00 0.00 0.00 0.00 0.00 0.00 0.00 0.00 0.00 0.00 0.00 0.00 0.00 0.00 0.01 0.01 0.01 0.02 0.04 0.06 0.09 0.12 0.14 0.16 0.19 0.23 0.24 0.22
0.08 0.07 0.05 0.04 0.03 0.03 0.03 0.03 0.02 0.01 0.00 0.00 0.00 0.00 0.00 0.00 0.00 0.00 0.00 0.00 0.00 0.00 0.00 0.00 0.00 0.00 0.00 0.00 0.00 0.00 0.00 0.00 0.00 0.00 0.00 0.00 0.01 0.01 0.02 0.03 0.04 0.06 0.07 0.09 0.11 0.14 0.19 0.22 0.21
0.07 0.06 0.05 0.03 0.02 0.03 0.04 0.04 0.02 0.00 0.00 0.00 0.00 0.00 0.00 0.00 0.00 0.00 0.00 0.00 0.00 0.00 0.00 0.00 0.00 0.00 0.00 0.00 0.00 0.00 0.00 0.00 0.00 0.00 0.00 0.00 0.01 0.01 0.02 0.02 0.02 0.02 0.05 0.07 0.10 0.13 0.15 0.17 0.19
0.03 0.03 0.04 0.02 0.02 0.03 0.06 0.04 0.01 0.00 0.00 0.00 0.00 0.00 0.00 0.00 0.00 0.00 0.00 0.00 0.00 0.00 0.00 0.00 0.00 0.00 0.00 0.00 0.00 0.00 0.00 0.00 0.00 0.00 0.00 0.00 0.01 0.01 0.02 0.02 0.02 0.02 0.02 0.04 0.06 0.10 0.12 0.15 0.16
0.02 0.02 0.02 0.01 0.02 0.03 0.03 0.03 0.01 0.00 0.00 0.00 0.00 0.00 0.00 0.00 0.00 0.00 0.00 0.00 0.00 0.00 0.00 0.00 0.00 0.00 0.00 0.00 0.00 0.00 0.00 0.00 0.00 0.00 0.00 0.00 0.01 0.01 0.01 0.02 0.02 0.02 0.02 0.02 0.03 0.05 0.08 0.11 0.13
0.03 0.03 0.02 0.01 0.01 0.02 0.03 0.03 0.01 0.00 0.00 0.00 0.00 0.00 0.00 0.00 0.00 0.00 0.00 0.00 0.00 0.00 0.00 0.00 0.00 0.00 0.00 0.00 0.00 0.00 0.00 0.00 0.00 0.00 0.00 0.00 0.00 0.01 0.02 0.02 0.02 0.02 0.03 0.03 0.03 0.03 0.05 0.07 0.11
0.04 0.03 0.02 0.02 0.01 0.01 0.01 0.01 0.00 0.00 0.00 0.00 0.00 0.00 0.00 0.00 0.00 0.00 0.00 0.00 0.00 0.00 0.00 0.00 0.00 0.00 0.00 0.00 0.00 0.00 0.00 0.00 0.00 0.00 0.00 0.00 0.00 0.01 0.02 0.03 0.03 0.03 0.04 0.04 0.03 0.03 0.04 0.05 0.08
0.02 0.01 0.01 0.01 0.01 0.00 0.00 0.00 0.00 0.00 0.00 0.00 0.00 0.00 0.00 0.00 0.00 0.00 0.00 0.00 0.00 0.00 0.00 0.00 0.00 0.00 0.00 0.00 0.00 0.00 0.00 0.00 0.00 0.00 0.00 0.00 0.00 0.00 0.01 0.02 0.03 0.04 0.03 0.03 0.03 0.03 0.03 0.04 0.06
0.01 0.01 0.01 0.00 0.01 0.01 0.00 0.00 0.00 0.00 0.00 0.00 0.00 0.00 0.00 0.00 0.00 0.00 0.00 0.00 0.00 0.00 0.00 0.00 0.00 0.00 0.00 0.00 0.00 0.00 0.00 0.00 0.00 0.00 0.00 0.00 0.00 0.00 0.01 0.01 0.01 0.02 0.03 0.02 0.03 0.03 0.03 0.03 0.05
0.01 0.01 0.00 0.00 0.01 0.00 0.00 0.00 0.00 0.00 0.00 0.00 0.00 0.00 0.00 0.00 0.00 0.00 0.00 0.00 0.00 0.00 0.00 0.00 0.00 0.00 0.00 0.00 0.00 0.00 0.00 0.00 0.00 0.00 0.00 0.00 0.00 0.00 0.01 0.01 0.01 0.02 0.02 0.02 0.03 0.04 0.04 0.03 0.03
0.01 0.00 0.00 0.01 0.00 0.00 0.00 0.00 0.00 0.00 0.00 0.00 0.00 0.00 0.00 0.00 0.00 0.00 0.00 0.00 0.00 0.00 0.00 0.00 0.00 0.00 0.00 0.00 0.00 0.00 0.00 0.00 0.00 0.00 0.00 0.00 0.00 0.00 0.00 0.01 0.01 0.02 0.02 0.02 0.03 0.04 0.04 0.04 0.04
0.01 0.01 0.00 0.00 0.00 0.00 0.00 0.00 0.00 0.00 0.00 0.00 0.00 0.00 0.00 0.00 0.00 0.00 0.00 0.00 0.00 0.00 0.00 0.00 0.00 0.00 0.00 0.00 0.00 0.00 0.00 0.00 0.00 0.00 0.00 0.00 0.00 0.00 0.00 0.00 0.01 0.01 0.01 0.01 0.01 0.02 0.04 0.04 0.04
0.03 0.02 0.01 0.00 0.00 0.00 0.00 0.00 0.00 0.00 0.00 0.00 0.00 0.00 0.00 0.00 0.00 0.00 0.00 0.00 0.00 0.00 0.00 0.00 0.00 0.00 0.00 0.00 0.00 0.00 0.00 0.00 0.00 0.00 0.00 0.00 0.00 0.00 0.00 0.01 0.00 0.00 0.00 0.00 0.00 0.01 0.02 0.04 0.04
0.04 0.02 0.01 0.01 0.00 0.00 0.00 0.00 0.00 0.00 0.00 0.00 0.00 0.00 0.00 0.00 0.00 0.00 0.00 0.00 0.00 0.00 0.00 0.00 0.00 0.00 0.00 0.00 0.00 0.00 0.00 0.00 0.00 0.00 0.00 0.00 0.00 0.00 0.00 0.00 0.01 0.00 0.00 0.00 0.00 0.01 0.02 0.02 0.03
0.02 0.01 0.00 0.00 0.00 0.00 0.00 0.00 0.00 0.00 0.00 0.00 0.00 0.00 0.00 0.00 0.00 0.00 0.00 0.00 0.00 0.00 0.00 0.00 0.00 0.00 0.00 0.00 0.00 0.00 0.00 0.00 0.00 0.00 0.00 0.00 0.00 0.00 0.00 0.00 0.01 0.01 0.00 0.01 0.01 0.01 0.01 0.01 0.01
0.01 0.00 0.00 0.00 0.00 0.00 0.00 0.00 0.00 0.00 0.00 0.00 0.00 0.00 0.00 0.00 0.00 0.00 0.00 0.00 0.00 0.00 0.00 0.00 0.00 0.00 0.00 0.00 0.00 0.00 0.00 0.00 0.00 0.00 0.00 0.00 0.00 0.00 0.00 0.00 0.00 0.00 0.01 0.01 0.01 0.02 0.01 0.01 0.01
0.00 0.00 0.00 0.00 0.00 0.00 0.00 0.00 0.00 0.00 0.00 0.00 0.00 0.00 0.00 0.00 0.00 0.00 0.00 0.00 0.00 0.00 0.00 0.00 0.00 0.00 0.00 0.00 0.00 0.00 0.00 0.00 0.00 0.00 0.00 0.00 0.00 0.00 0.00 0.00 0.00 0.00 0.01 0.01 0.00 0.01 0.01 0.01 0.00
0.00 0.00 0.00 0.00 0.00 0.00 0.00 0.00 0.00 0.00 0.00 0.00 0.00 0.00 0.00 0.00 0.00 0.00 0.00 0.00 0.00 0.00 0.00 0.00 0.00 0.00 0.00 0.00 0.00 0.00 0.00 0.00 0.00 0.00 0.00 0.00 0.00 0.00 0.00 0.00 0.00 0.00 0.01 0.01 0.01 0.00 0.00 0.00 0.01
0.00 0.00 0.00 0.00 0.00 0.00 0.00 0.00 0.00 0.00 0.00 0.00 0.00 0.00 0.00 0.00 0.00 0.00 0.00 0.00 0.00 0.00 0.00 0.00 0.00 0.00 0.00 0.00 0.00 0.00 0.00 0.00 0.00 0.00 0.00 0.00 0.00 0.00 0.00 0.00 0.00 0.00 0.01 0.01 0.01 0.01 0.00 0.01 0.01
0.00 0.00 0.00 0.00 0.00 0.00 0.00 0.00 0.00 0.00 0.00 0.00 0.00 0.00 0.00 0.00 0.00 0.00 0.00 0.00 0.00 0.00 0.00 0.00 0.00 0.00 0.00 0.00 0.00 0.00 0.00 0.00 0.00 0.00 0.00 0.00 0.00 0.00 0.00 0.00 0.00 0.00 0.00 0.00 0.00 0.01 0.01 0.01 0.01
MSLP
1012.34 1013.18 1014.04 1014.80 1015.34 1015.59 1015.52 1015.17 1014.64 1014.04 1013.51 1013.17 1013.04 1013.12 1013.35 1013.62 1013.82 1013.88 1013.77 1013.52 1013.19 1012.87 1012.65 1012.58 1012.67 1012.88 1013.14 1013.39 1013.56 1013.63 1013.61 1013.53 1013.46 1013.44 1013.50 1013.65 1013.84 1014.05 1014.21 1014.31 1014.33 1014.29 1014.23 1014.18 1014.17 1014.20 1014.26 1014.29 1014.26
1012.37 1013.26 1014.15 1014.90 1015.41 1015.59 1015.45 1015.04 1014.45 1013.82 1013.30 1012.98 1012.89 1013.02 1013.29 1013.59 1013.82 1013.89 1013.79 1013.55 1013.24 1012.94 1012.74 1012.70 1012.81 1013.03 1013.31 1013.55 1013.71 1013.76 1013.73 1013.63 1013.55 1013.52 1013.58 1013.71 1013.89 1014.07 1014.21 1014.28 1014.28 1014.24 1014.20 1014.18 1014.22 1014.30 1014.41 1014.48 1014.48
1012.49 1013.40 1014.28 1014.99 1015.42 1015.53 1015.31 1014.84 1014.23 1013.61 1013.12 1012.84 1012.81 1012.98 1013.28 1013.59 1013.82 1013.90 1013.80 1013.58 1013.29 1013.03 1012.88 1012.88 1013.02 1013.26 1013.54 1013.76 1013.90 1013.92 1013.85 1013.73 1013.63 1013.59 1013.63 1013.74 1013.90 1014.05 1014.16 1014.20 1014.18 1014.13 1014.10 1014.11 1014.19 1014.33 1014.49 1014.62 1014.65
1012.70 1013.61 1014.43 1015.05 1015.39 1015.40 1015.12 1014.62 1014.01 1013.43 1013.00 1012.79 1012.81 1013.01 1013.33 1013.64 1013.86 1013.92 1013.83 1013.63 1013.38 1013.17 1013.08 1013.12 1013.30 1013.55 1013.80 1014.00 1014.09 1014.07 1013.96 1013.81 1013.68 1013.62 1013.65 1013.74 1013.87 1014.00 1014.07 1014.08 1014.04 1013.98 1013.94 1013.98 1014.10 1014.29 1014.50 1014.69 1014.78
1012.99 1013.84 1014.56 1015.07 1015.29 1015.22 1014.88 1014.37 1013.80 1013.29 1012.95 1012.82 1012.90 1013.14 1013.46 1013.75 1013.95 1013.99 1013.90 1013.71 1013.51 1013.36 1013.31 1013.40 1013.60 1013.85 1014.08 1014.23 1014.26 1014.18 1014.03 1013.84 1013.69 1013.62 1013.63 1013.71 1013.82 1013.92 1013.96 1013.94 1013.87 1013.80 1013.76 1013.81 1013.96 1014.18 1014.45 1014.69 1014.83
1013.28 1014.04 1014.65 1015.02 1015.12 1014.96 1014.59 1014.10 1013.60 1013.19 1012.95 1012.92 1013.06 1013.34 1013.65 1013.92 1014.08 1014.11 1014.01 1013.84 1013.68 1013.58 1013.58 1013.70 1013.90 1014.13 1014.31 1014.40 1014.38 1014.24 1014.04 1013.83 1013.66 1013.58 1013.59 1013.66 1013.75 1013.83 1013.84 1013.79 1013.69 1013.60 1013.56 1013.61 1013.77 1014.03 1014.33 1014.61 1014.80
1013.52 1014.17 1014.63 1014.85 1014.83 1014.60 1014.23 1013.79 1013.39 1013.10 1012.99 1013.06 1013.27 1013.57 1013.88 1014.12 1014.25 1014.25 1014.15 1014.00 1013.87 1013.81 1013.85 1013.98 1014.17 1014.35 1014.48 1014.50 1014.41 1014.23 1014.00 1013.77 1013.60 1013.52 1013.53 1013.60 1013.68 1013.73 1013.71 1013.63 1013.51 1013.40 1013.34 1013.39 1013.55 1013.82 1014.14 1014.45 1014.68
1013.66 1014.18 1014.48 1014.57 1014.45 1014.18 1013.82 1013.45 1013.17 1013.02 1013.03 1013.19 1013.47 1013.79 1014.09 1014.30 1014.40 1014.39 1014.29 1014.17 1014.07 1014.04 1014.09 1014.21 1014.37 1014.51 1014.57 1014.53 1014.39 1014.17 1013.92 1013.69 1013.54 1013.47 1013.48 1013.55 1013.61 1013.63 1013.59 1013.47 1013.33 1013.19 1013.12 1013.15 1013.31 1013.57 1013.89 1014.20 1014.45
1013.69 1014.07 1014.23 1014.20 1014.00 1013.71 1013.39 1013.11 1012.94 1012.92 1013.04 1013.29 1013.61 1013.94 1014.22 1014.42 1014.50 1014.48 1014.40 1014.30 1014.23 1014.23 1014.29 1014.40 1014.51 1014.59 1014.60 1014.51 1014.33 1014.09 1013.84 1013.63 1013.50 1013.44 1013.46 1013.52 1013.56 1013.55 1013.47 1013.33 1013.15 1012.99 1012.90 1012.92 1013.06 1013.30 1013.59 1013.89 1014.13
1013.63 1013.88 1013.92 1013.79 1013.55 1013.26 1012.99 1012.81 1012.74 1012.82 1013.03 1013.32 1013.66 1013.99 1014.25 1014.43 1014.51 1014.50 1014.45 1014.39 1014.36 1014.37 1014.43 1014.52 1014.60 1014.63 1014.59 1014.46 1014.26 1014.02 1013.80 1013.61 1013.50 1013.47 1013.48 1013.52 1013.53 1013.48 1013.37 1013.19 1012.99 1012.82 1012.71 1012.71 1012.82 1013.02 1013.28 1013.54 1013.74
1013.53 1013.68 1013.63 1013.44 1013.17 1012.90 1012.69 1012.58 1012.60 1012.74 1012.98 1013.29 1013.62 1013.92 1014.16 1014.32 1014.40 1014.42 1014.41 1014.40 1014.42 1014.46 1014.53 1014.60 1014.65 1014.64 1014.56 1014.41 1014.22 1014.00 1013.80 1013.66 1013.57 1013.54 1013.55 1013.56 1013.54 1013.45 1013.30 1013.10 1012.88 1012.69 1012.57 1012.55 1012.63 1012.79 1012.99 1013.19 1013.33
1013.45 1013.52 1013.41 1013.19 1012.93 1012.70 1012.54 1012.48 1012.54 1012.70 1012.93 1013.21 1013.49 1013.74 1013.94 1014.09 1014.19 1014.25 1014.30 1014.36 1014.42 1014.50 1014.59 1014.65 1014.67 1014.64 1014.55 1014.40 1014.22 1014.04 1013.88 1013.77 1013.71 1013.68 1013.67 1013.65 1013.59 1013.47 1013.29 1013.07 1012.84 1012.64 1012.52 1012.47 1012.51 1012.61 1012.74 1012.87 1012.94
1013.44 1013.46 1013.32 1013.11 1012.87 1012.67 1012.55 1012.51 1012.57 1012.70 1012.88 1013.09 1013.29 1013.48 1013.64 1013.78 1013.90 1014.02 1014.13 1014.26 1014.38 1014.50 1014.61 1014.67 1014.69 1014.65 1014.56 1014.44 1014.29 1014.15 1014.03 1013.95 1013.90 1013.87 1013.84 1013.78 1013.68 1013.53 1013.33 1013.11 1012.88 1012.69 1012.56 1012.49 1012.48 1012.52 1012.58 1012.61 1012.61
1013.50 1013.50 1013.37 1013.18 1012.97 1012.81 1012.70 1012.66 1012.68 1012.75 1012.84 1012.95 1013.06 1013.17 1013.29 1013.42 1013.57 1013.74 1013.92 1014.11 1014.30 1014.47 1014.59 1014.67 1014.70 1014.67 1014.61 1014.51 1014.41 1014.31 1014.23 1014.17 1014.13 1014.09 1014.03 1013.95 1013.82 1013.65 1013.45 1013.23 1013.02 1012.84 1012.71 1012.61 1012.56 1012.53 1012.49 1012.44 1012.34
1013.63 1013.63 1013.51 1013.35 1013.18 1013.04 1012.93 1012.87 1012.83 1012.80 1012.79 1012.79 1012.80 1012.84 1012.92 1013.05 1013.23 1013.45 1013.70 1013.95 1014.19 1014.40 1014.55 1014.65 1014.70 1014.70 1014.67 1014.61 1014.56 1014.50 1014.46 1014.42 1014.38 1014.32 1014.24 1014.13 1013.99 1013.82 1013.63 1013.44 1013.25 1013.09 1012.95 1012.83 1012.73 1012.62 1012.49 1012.34 1012.17
1013.78 1013.78 1013.69 1013.56 1013.42 1013.29 1013.17 1013.06 1012.94 1012.82 1012.70 1012.59 1012.51 1012.49 1012.55 1012.68 1012.90 1013.16 1013.47 1013.77 1014.05 1014.29 1014.48 1014.60 1014.68 1014.71 1014.73 1014.73 1014.72 1014.71 1014.70 1014.67 1014.62 1014.55 1014.45 1014.33 1014.18 1014.02 1013.86 1013.70 1013.55 1013.40 1013.26 1013.11 1012.95 1012.77 1012.55 1012.32 1012.07
1013.91 1013.91 1013.83 1013.73 1013.60 1013.48 1013.33 1013.17 1012.97 1012.76 1012.53 1012.33 1012.19 1012.13 1012.17 1012.33 1012.57 1012.88 1013.23 1013.57 1013.89 1014.15 1014.36 1014.51 1014.62 1014.70 1014.77 1014.83 1014.88 1014.92 1014.93 1014.91 1014.86 1014.77 1014.65 1014.52 1014.38 1014.24 1014.11 1013.99 1013.88 1013.75 1013.61 1013.43 1013.21 1012.96 1012.67 1012.36 1012.05
1013.97 1013.97 1013.90 1013.81 1013.70 1013.56 1013.39 1013.16 1012.89 1012.58 1012.28 1012.01 1011.82 1011.74 1011.78 1011.96 1012.24 1012.59 1012.97 1013.34 1013.68 1013.96 1014.19 1014.37 1014.52 1014.66 1014.79 1014.92 1015.02 1015.10 1015.14 1015.13 1015.07 1014.97 1014.83 1014.70 1014.56 1014.45 1014.36 1014.29 1014.21 1014.10 1013.95 1013.75 1013.49 1013.17 1012.82 1012.45 1012.10
1013.96 1013.95 1013.90 1013.82 1013.71 1013.55 1013.33 1013.04 1012.69 1012.31 1011.93 1011.60 1011.38 1011.29 1011.36 1011.56 1011.88 1012.26 1012.67 1013.07 1013.42 1013.71 1013.96 1014.18 1014.38 1014.58 1014.78 1014.97 1015.14 1015.26 1015.33 1015.32 1015.25 1015.13 1014.99 1014.84 1014.72 1014.64 1014.58 1014.55 1014.50 1014.41 1014.27 1014.05 1013.75 1013.39 1013.00 1012.61 1012.24
1013.89 1013.89 1013.85 1013.79 1013.68 1013.49 1013.22 1012.87 1012.43 1011.96 1011.51 1011.14 1010.89 1010.81 1010.89 1011.12 1011.47 1011.89 1012.32 1012.73 1013.10 1013.41 1013.69 1013.94 1014.19 1014.46 1014.73 1014.98 1015.21 1015.38 1015.47 1015.47 1015.39 1015.25 1015.10 1014.95 1014.84 1014.78 1014.75 1014.75 1014.73 1014.67 1014.53 1014.31 1014.00 1013.63 1013.22 1012.83 1012.47
1013.79 1013.82 1013.82 1013.78 1013.67 1013.46 1013.14 1012.70 1012.18 1011.62 1011.09 1010.66 1010.38 1010.28 1010.38 1010.64 1011.02 1011.46 1011.92 1012.35 1012.73 1013.06 1013.36 1013.66 1013.96 1014.29 1014.62 1014.94 1015.23 1015.43 1015.55 1015.55 1015.47 1015.33 1015.16 1015.01 1014.90 1014.85 1014.85 1014.88 1014.89 1014.85 1014.73 1014.52 1014.22 1013.86 1013.47 1013.10 1012.77
1013.70 1013.78 1013.85 1013.85 1013.75 1013.52 1013.14 1012.62 1011.99 1011.33 1010.71 1010.20 1009.87 1009.76 1009.85 1010.13 1010.53 1011.00 1011.48 1011.93 1012.33 1012.68 1013.01 1013.34 1013.69 1014.07 1014.46 1014.84 1015.16 1015.41 1015.54 1015.56 1015.48 1015.33 1015.15 1015.00 1014.89 1014.85 1014.87 1014.92 1014.95 1014.94 1014.85 1014.67 1014.41 1014.08 1013.74 1013.40 1013.12
1013.64 1013.82 1013.97 1014.03 1013.96 1013.71 1013.27 1012.66 1011.92 1011.14 1010.41 1009.82 1009.42 1009.27 1009.35 1009.62 1010.04 1010.53 1011.03 1011.50 1011.92 1012.30 1012.65 1013.01 1013.39 1013.80 1014.23 1014.65 1015.01 1015.28 1015.44 1015.47 1015.39 1015.24 1015.07 1014.92 1014.82 1014.78 1014.81 1014.88 1014.94 1014.96 1014.90 1014.76 1014.55 1014.27 1013.98 1013.71 1013.48
1013.62 1013.91 1014.17 1014.31 1014.27 1014.01 1013.52 1012.82 1011.97 1011.07 1010.22 1009.53 1009.06 1008.85 1008.90 1009.17 1009.59 1010.10 1010.62 1011.11 1011.54 1011.93 1012.30 1012.67 1013.07 1013.49 1013.94 1014.37 1014.75 1015.04 1015.22 1015.27 1015.20 1015.07 1014.91 1014.77 1014.67 1014.65 1014.69 1014.77 1014.85 1014.89 1014.88 1014.79 1014.62 1014.41 1014.18 1013.97 1013.79
1013.61 1014.03 1014.39 1014.61 1014.62 1014.36 1013.82 1013.04 1012.09 1011.08 1010.13 1009.34 1008.79 1008.53 1008.54 1008.80 1009.22 1009.73 1010.26 1010.76 1011.21 1011.60 1011.97 1012.34 1012.73 1013.15 1013.58 1014.01 1014.39 1014.69 1014.88 1014.96 1014.92 1014.82 1014.68 1014.56 1014.48 1014.47 1014.52 1014.61 1014.70 1014.77 1014.78 1014.73 1014.62 1014.46 1014.29 1014.13 1014.00
1013.58 1014.12 1014.58 1014.86 1014.90 1014.64 1014.07 1013.23 1012.21 1011.11 1010.08 1009.21 1008.61 1008.30 1008.28 1008.52 1008.93 1009.44 1009.98 1010.48 1010.93 1011.32 1011.67 1012.01 1012.37 1012.76 1013.17 1013.58 1013.95 1014.26 1014.46 1014.56 1014.56 1014.49 1014.40 1014.31 1014.26 1014.26 1014.32 1014.42 1014.52 1014.60 1014.63 1014.61 1014.54 1014.42 1014.30 1014.17 1014.07
1013.51 1014.11 1014.63 1014.96 1015.02 1014.75 1014.16 1013.29 1012.23 1011.09 1010.01 1009.11 1008.47 1008.13 1008.10 1008.32 1008.72 1009.23 1009.75 1010.25 1010.68 1011.05 1011.38 1011.69 1012.01 1012.36 1012.73 1013.11 1013.46 1013.76 1013.98 1014.11 1014.15 1014.14 1014.09 1014.04 1014.02 1014.04 1014.11 1014.21 1014.31 1014.39 1014.44 1014.43 1014.38 1014.29 1014.19 1014.08 1014.00
1013.36 1013.98 1014.50 1014.82 1014.87 1014.60 1014.00 1013.13 1012.07 1010.94 1009.86 1008.97 1008.33 1007.99 1007.95 1008.16 1008.55 1009.03 1009.55 1010.02 1010.44 1010.78 1011.08 1011.36 1011.64 1011.94 1012.27 1012.62 1012.95 1013.25 1013.48 1013.64 1013.73 1013.77 1013.77 1013.77 1013.78 1013.83 1013.90 1014.00 1014.10 1014.17 1014.21 1014.21 1014.16 1014.08 1013.99 1013.89 1013.80
1013.13 1013.69 1014.15 1014.42 1014.43 1014.14 1013.54 1012.69 1011.67 1010.59 1009.58 1008.74 1008.14 1007.82 1007.78 1007.98 1008.35 1008.81 1009.30 1009.75 1010.14 1010.46 1010.73 1010.99 1011.24 1011.51 1011.81 1012.13 1012.45 1012.75 1013.00 1013.19 1013.32 1013.41 1013.46 1013.50 1013.54 1013.61 1013.69 1013.78 1013.87 1013.94 1013.97 1013.95 1013.91 1013.82 1013.73 1013.63 1013.53
1012.82 1013.26 1013.60 1013.77 1013.71 1013.39 1012.80 1011.99 1011.04 1010.06 1009.13 1008.37 1007.84 1007.56 1007.53 1007.72 1008.06 1008.49 1008.94 1009.36 1009.73 1010.04 1010.30 1010.55 1010.79 1011.06 1011.36 1011.67 1011.99 1012.29 1012.56 1012.78 1012.94 1013.06 1013.15 1013.22 1013.30 1013.37 1013.46 1013.55 1013.63 1013.68 1013.70 1013.68 1013.63 1013.54 1013.44 1013.33 1013.23
Thickness
5789 5787 5785 5775 5761 5754 5753 5764 5774 5774 5777 5784 5786 5784 5779 5773 5766 5758 5773 5781 5780 5778 5774 5769 5765 5763 5762 5761 5759 5758 5757 5756 5755 5754 5754 5753 5753 5753 5752 5752 5753 5753 5753 5753 5753 5754 5754 5755 5756
5790 5786 5779 5769 5755 5747 5750 5765 5769 5773 5779 5784 5784 5781 5776 5771 5775 5773 5774 5775 5776 5774 5770 5767 5762 5760 5759 5757 5756 5754 5753 5752 5751 5750 5750 5749 5749 5749 5749 5749 5749 5750 5750 5750 5750 5750 5751 5752 5753
5788 5785 5772 5764 5756 5752 5754 5766 5770 5776 5782 5781 5777 5777 5774 5767 5771 5771 5772 5773 5772 5770 5766 5762 5758 5756 5755 5753 5752 5750 5749 5748 5747 5746 5745 5746 5745 5745 5745 5745 5746 5746 5746 5746 5747 5747 5748 5748 5750
5785 5775 5770 5762 5756 5763 5766 5771 5775 5774 5776 5779 5776 5770 5771 5771 5771 5771 5771 5771 5768 5765 5761 5757 5753 5751 5750 5749 5747 5746 5745 5743 5742 5741 5741 5741 5741 5741 5741 5741 5742 5742 5743 5743 5744 5744 5744 5745 5747
5782 5771 5760 5757 5760 5768 5774 5776 5777 5773 5773 5775 5774 5765 5761 5768 5771 5769 5767 5766 5763 5760 5756 5752 5747 5746 5744 5743 5741 5740 5739 5738 5736 5735 5736 5736 5736 5736 5737 5737 5738 5738 5738 5739 5740 5741 5741 5742 5743
5771 5768 5756 5754 5760 5768 5773 5777 5776 5773 5771 5771 5769 5762 5758 5766 5765 5763 5762 5760 5758 5755 5752 5748 5742 5740 5739 5737 5736 5735 5734 5732 5731 5730 5730 5730 5730 5731 5732 5732 5734 5734 5735 5735 5736 5737 5738 5739 5740
5767 5762 5757 5760 5759 5762 5769 5776 5774 5770 5767 5768 5770 5759 5757 5760 5761 5761 5758 5756 5753 5750 5747 5744 5742 5738 5735 5732 5730 5729 5728 5727 5726 5725 5725 5725 5725 5726 5726 5727 5729 5730 5731 5732 5733 5733 5734 5735 5737
5772 5764 5757 5759 5757 5759 5770 5773 5774 5771 5766 5772 5770 5759 5753 5758 5760 5757 5754 5752 5749 5747 5744 5741 5738 5735 5733 5731 5726 5724 5723 5722 5721 5720 5719 5720 5720 5721 5721 5722 5723 5725 5726 5727 5728 5729 5731 5732 5733
5771 5757 5753 5757 5758 5762 5770 5768 5770 5774 5769 5767 5768 5765 5764 5762 5758 5752 5748 5746 5744 5742 5741 5738 5735 5732 5728 5727 5723 5721 5719 5717 5717 5717 5715 5715 5718 5719 5718 5718 5718 5719 5721 5722 5724 5726 5728 5729 5730
5762 5752 5757 5765 5768 5767 5768 5768 5768 5765 5760 5759 5760 5760 5761 5757 5753 5748 5745 5743 5740 5738 5738 5737 5733 5730 5727 5724 5721 5719 5718 5716 5715 5713 5712 5712 5712 5712 5712 5712 5713 5715 5716 5718 5720 5722 5724 5726 5728
5761 5756 5762 5766 5770 5769 5765 5766 5769 5762 5755 5760 5758 5755 5755 5753 5750 5747 5745 5743 5740 5738 5736 5734 5732 5728 5725 5723 5720 5717 5714 5712 5711 5709 5707 5706 5707 5708 5708 5710 5711 5712 5713 5715 5717 5720 5722 5724 5726
5758 5759 5762 5765 5767 5764 5763 5764 5762 5761 5762 5769 5767 5761 5755 5750 5748 5746 5744 5742 5739 5736 5733 5732 5730 5728 5724 5721 5717 5714 5713 5710 5708 5705 5703 5703 5703 5702 5704 5705 5706 5707 5709 5710 5713 5716 5719 5721 5724
5754 5756 5760 5764 5764 5764 5763 5760 5759 5760 5766 5768 5764 5758 5753 5751 5749 5748 5746 5743 5739 5734 5732 5730 5727 5725 5722 5718 5713 5713 5709 5706 5705 5700 5699 5697 5698 5698 5699 5700 5700 5702 5704 5706 5708 5712 5715 5718 5721
5755 5755 5756 5760 5761 5761 5757 5757 5756 5760 5764 5761 5757 5754 5753 5751 5748 5746 5743 5741 5738 5735 5732 5729 5725 5722 5719 5716 5713 5710 5707 5703 5701 5698 5696 5693 5693 5692 5692 5695 5695 5698 5699 5701 5703 5707 5710 5713 5716
5753 5748 5750 5755 5757 5758 5754 5747 5754 5763 5761 5756 5754 5754 5752 5750 5748 5746 5745 5742 5740 5736 5733 5728 5724 5721 5718 5714 5710 5708 5704 5702 5698 5695 5692 5690 5688 5687 5688 5689 5691 5692 5693 5695 5698 5703 5705 5709 5713
5748 5742 5738 5750 5754 5754 5746 5740 5758 5763 5758 5753 5754 5753 5749 5748 5749 5749 5747 5744 5741 5737 5733 5728 5724 5720 5716 5711 5707 5706 5703 5699 5696 5692 5689 5686 5685 5683 5682 5683 5685 5685 5687 5690 5693 5697 5700 5704 5708
5736 5733 5736 5743 5751 5750 5746 5744 5757 5760 5756 5753 5753 5753 5749 5749 5748 5749 5747 5744 5741 5737 5733 5728 5724 5719 5715 5710 5706 5703 5700 5696 5693 5689 5686 5683 5681 5680 5680 5678 5679 5681 5683 5686 5689 5693 5696 5699 5702
5730 5735 5736 5738 5747 5746 5742 5747 5755 5758 5755 5755 5754 5753 5751 5751 5750 5751 5747 5744 5740 5737 5733 5728 5722 5718 5714 5710 5707 5703 5699 5696 5692 5688 5683 5679 5678 5676 5676 5676 5676 5677 5679 5681 5684 5687 5691 5694 5698
5741 5737 5735 5740 5747 5742 5742 5747 5756 5759 5755 5753 5754 5754 5754 5753 5755 5752 5747 5743 5739 5736 5732 5727 5722 5718 5713 5709 5705 5701 5698 5694 5691 5686 5681 5678 5676 5674 5673 5673 5673 5673 5675 5677 5681 5683 5687 5690 5695
5736 5733 5735 5741 5743 5741 5743 5747 5759 5761 5758 5758 5758 5758 5757 5755 5753 5749 5746 5742 5740 5736 5732 5728 5723 5718 5713 5707 5704 5699 5695 5693 5689 5685 5681 5677 5675 5672 5672 5671 5671 5671 5671 5673 5676 5678 5681 5686 5690
5732 5732 5735 5733 5738 5741 5738 5744 5755 5760 5760 5759 5759 5760 5762 5757 5754 5751 5746 5743 5739 5736 5732 5727 5723 5718 5712 5707 5703 5699 5695 5692 5690 5685 5681 5677 5674 5671 5669 5669 5669 5669 5671 5671 5672 5675 5676 5679 5685
5728 5738 5735 5732 5729 5733 5732 5727 5750 5755 5753 5755 5757 5759 5759 5758 5756 5753 5748 5744 5741 5737 5733 5729 5723 5718 5713 5708 5703 5699 5693 5691 5687 5684 5681 5678 5674 5671 5669 5668 5667 5668 5669 5669 5671 5673 5674 5676 5679
5733 5734 5734 5732 5731 5730 5734 5727 5745 5752 5750 5757 5760 5760 5760 5759 5757 5753 5749 5746 5743 5739 5733 5729 5723 5718 5713 5708 5702 5697 5695 5691 5688 5685 5681 5679 5676 5672 5669 5667 5667 5667 5668 5668 5669 5670 5672 5674 5676
5732 5731 5729 5731 5730 5718 5729 5724 5734 5752 5754 5758 5761 5762 5761 5759 5757 5754 5751 5746 5742 5738 5732 5728 5722 5717 5712 5707 5703 5699 5694 5690 5687 5683 5681 5679 5677 5673 5670 5667 5667 5667 5667 5667 5667 5668 5669 5670 5672
5729 5724 5715 5714 5713 5719 5727 5721 5736 5756 5758 5757 5758 5761 5762 5760 5757 5753 5749 5744 5741 5736 5732 5728 5723 5718 5713 5709 5705 5701 5695 5691 5688 5685 5682 5679 5678 5674 5671 5668 5667 5666 5665 5665 5665 5666 5667 5668 5669
5730 5729 5713 5703 5706 5719 5724 5723 5746 5757 5757 5757 5757 5758 5760 5758 5757 5754 5751 5747 5742 5738 5734 5730 5725 5720 5715 5710 5707 5703 5698 5693 5691 5685 5683 5680 5678 5675 5671 5668 5667 5665 5664 5664 5664 5664 5665 5667 5668
5728 5728 5733 5721 5716 5709 5724 5734 5748 5756 5754 5755 5755 5755 5757 5757 5756 5754 5752 5749 5745 5741 5736 5732 5727 5722 5717 5713 5708 5704 5700 5695 5691 5687 5684 5682 5678 5674 5672 5669 5668 5666 5664 5663 5663 5663 5663 5664 5665
5734 5734 5723 5714 5701 5701 5714 5723 5733 5747 5750 5753 5754 5754 5757 5757 5756 5755 5752 5749 5747 5744 5739 5734 5729 5724 5719 5714 5710 5704 5700 5696 5691 5688 5685 5682 5679 5675 5672 5671 5669 5667 5665 5663 5662 5662 5660 5661 5662
5721 5721 5722 5719 5713 5700 5700 5720 5747 5747 5750 5752 5755 5757 5757 5756 5756 5755 5752 5751 5748 5744 5740 5735 5730 5725 5720 5716 5711 5706 5701 5697 5693 5689 5685 5682 5680 5677 5674 5671 5669 5668 5666 5664 5662 5661 5660 5660 5661
5730 5728 5723 5709 5709 5708 5703 5721 5755 5750 5751 5751 5754 5758 5758 5757 5757 5755 5753 5750 5747 5744 5740 5736 5732 5727 5722 5717 5712 5707 5703 5698 5694 5691 5687 5684 5681 5678 5675 5673 5670 5668 5665 5664 5662 5660 5659 5658 5658